Flight Track Log - Related Links

Times and Time Zones

All times are in EDT time to prevent confusion due to time zone crossing. See the N831C flight status page for this flight to view local times or setup timezone preferences in your user account.

Time Position Orientation Groundspeed Altitude Reporting Facility
EDT Latitude Longitude Course Direction KTS MPH feet Rate Location/Type
Sun 14:25:27 38.2833 -78.8333 64° Northeast 117 135 2,700  Level Potomac TRACON
Sun 14:26:27 38.3000 -78.8000 57° Northeast 125 144 3,400 800 Climbing Potomac TRACON
Sun 14:27:27 38.3333 -78.7500 50° Northeast 134 154 4,300 893 Climbing Potomac TRACON
Sun 14:28:28 38.3333 -78.7000 90° East 136 157 5,200 793 Climbing Potomac TRACON
Sun 14:29:28 38.3500 -78.6500 67° East 143 165 5,900 650 Climbing Potomac TRACON
Sun 14:30:28 38.3833 -78.6167 38° Northeast 154 177 6,500 550 Climbing Potomac TRACON
Sun 14:31:00 38.3697 -78.5646 64° Northeast  Level FlightAware Approximate
Sun 14:31:28 38.4000 -78.5667 67° East 163 188 7,000  Level Potomac TRACON
Sun 14:32:28 38.4167 -78.5000 72° East 177 204 7,000  Level Potomac TRACON
Sun 14:33:29 38.4333 -78.4500 67° East 181 208 7,000  Level Potomac TRACON
Sun 14:34:29 38.4667 -78.3833 57° Northeast 197 227 7,000  Level Potomac TRACON
Sun 14:35:29 38.5000 -78.3333 50° Northeast 189 217 7,000  Level Potomac TRACON
Sun 14:36:30 38.5333 -78.3000 38° Northeast 154 177 7,000 50 Level Potomac TRACON
Sun 14:37:30 38.5667 -78.2500 50° Northeast 172 198 7,100 50 Climbing Potomac TRACON
Sun 14:38:31 38.6000 -78.2000 50° Northeast 182 209 7,100  Level Potomac TRACON
Sun 14:39:31 38.6333 -78.1667 38° Northeast 195 224 7,100  Level Potomac TRACON
Sun 14:40:31 38.6667 -78.1000 57° Northeast 197 227 7,100 -50 Level Potomac TRACON
Sun 14:41:31 38.7000 -78.0667 38° Northeast 186 214 7,000 -450 Descending Potomac TRACON
Sun 14:42:31 38.7333 -78.0167 49° Northeast 183 211 6,200 -800 Descending Potomac TRACON
Sun 14:43:31 38.7667 -77.9667 49° Northeast 174 200 5,400 -730 Descending Potomac TRACON
Sun 14:44:26 38.8000 -77.9333 38° Northeast 177 204 4,800 -678 Descending Potomac TRACON
Sun 14:45:26 38.8333 -77.8833 49° Northeast 164 189 4,100 -400 Descending Potomac TRACON
Sun 14:46:26 38.8667 -77.8500 38° Northeast 157 181 4,000 -50 Descending Potomac TRACON
Sun 14:47:26 38.9000 -77.8000 49° Northeast 156 180 4,000  Level Potomac TRACON
Sun 14:48:26 38.9167 -77.7667 57° Northeast 143 165 4,000 -200 Level Potomac TRACON
Sun 14:49:26 38.9500 -77.7333 38° Northeast 153 176 3,600 -600 Descending Potomac TRACON
Sun 14:50:26 38.9833 -77.6833 49° Northeast 162 186 2,800 -595 Descending Potomac TRACON
Sun 14:51:27 39.0167 -77.6500 38° Northeast 153 176 2,400 -496 Descending Potomac TRACON
Sun 14:52:27 39.0500 -77.6167 38° Northeast 147 169 1,800 -550 Descending Potomac TRACON
Sun 14:53:27 39.0833 -77.6000 21° North 144 166 1,300 -350 Descending Potomac TRACON
Sun 14:54:27 39.0500 -77.5833 159° South 139 160 1,100 -350 Descending Potomac TRACON
Sun 14:55:27 39.0667 -77.5500 57° Northeast 109 125 600 -400 Descending Potomac TRACON
Sun 14:56:27 39.0833 -77.5667 322° Northwest 120 138 300 -300 Descending Potomac TRACON

Login

Don't have an account? Register now (free) for customized features, flight alerts, and more!